{"data":{"norad_id":59516,"epoch":"2026-09-21T03:13:35.596128Z","epoch_age_seconds":110504,"freshness":"FRESH","line1":"1 59516U 24073F   26264.13443977  .00000019  00000+0  10233-4 0  9992","line2":"2 59516  43.0030 294.4794 0001179 272.4701  87.6016 15.27577724136069","mean_motion":15.27577724,"eccentricity":0.0001179,"inclination_deg":43.003,"raan_deg":294.4794,"arg_perigee_deg":272.4701,"mean_anomaly_deg":87.6016,"bstar":1.0233e-5,"rev_number":13606,"period_min":94.266889165503,"perigee_km":482.24697656667,"apogee_km":483.86484585513,"semimajor_km":6861.1929112109,"source":"CELESTRAK","updated_at":"2026-09-22T09:00:48.963288Z"}}